| time (UTC) | temp F | wind direction | speed knots | gust knots | rain 1hr in | rain 24hr in | rain mn in | humidity % | barometer mb |
| 20260503233358 | 96 | 200 | 2.6 | 13.9 | 0.00 | 0.00 | 0.00 | 12 | 1003.8 |
| 20260503232355 | 96 | 281 | 4.3 | 14.8 | 0.00 | 0.00 | 0.00 | 12 | 1003.8 |
| 20260503231331 | 97 | 301 | 0.9 | 10.4 | 0.00 | 0.00 | 0.00 | 13 | 1004.1 |
| 20260503230330 | 97 | 243 | 3.5 | 10.4 | 0.00 | 0.00 | 0.00 | 12 | 1004.1 |
| 20260503225345 | 97 | 265 | 6.1 | 11.3 | 0.00 | 0.00 | 0.00 | 12 | 1004.4 |
| 20260503224328 | 98 | 264 | 2.6 | 7.8 | 0.00 | 0.00 | 0.00 | 12 | 1004.5 |
| 20260503223345 | 97 | 242 | 2.6 | 7.8 | 0.00 | 0.00 | 0.00 | 12 | 1004.6 |
| 20260503222344 | 97 | 196 | 3.5 | 8.7 | 0.00 | 0.00 | 0.00 | 13 | 1004.8 |
| 20260503221343 | 97 | 191 | 0.0 | 11.3 | 0.00 | 0.00 | 0.00 | 13 | 1005.0 |
| 20260503220402 | 96 | 164 | 5.2 | 14.8 | 0.00 | 0.00 | 0.00 | 13 | 1005.3 |
| 20260503215341 | 97 | 202 | 3.5 | 11.3 | 0.00 | 0.00 | 0.00 | 13 | 1005.4 |
| 20260503214327 | 96 | 171 | 0.9 | 8.7 | 0.00 | 0.00 | 0.00 | 13 | 1005.6 |
| 20260503213346 | 95 | 38 | 0.0 | 7.8 | 0.00 | 0.00 | 0.00 | 15 | 1005.8 |
| 20260503212405 | 95 | 137 | 3.5 | 10.4 | 0.00 | 0.00 | 0.00 | 14 | 1006.0 |
| 20260503211341 | 95 | 178 | 5.2 | 13.0 | 0.00 | 0.00 | 0.00 | 15 | 1006.3 |
| 20260503210343 | 95 | 128 | 7.0 | 15.6 | 0.00 | 0.00 | 0.00 | 14 | 1006.5 |
| 20260503205341 | 95 | 207 | 6.1 | 13.0 | 0.00 | 0.00 | 0.00 | 15 | 1006.5 |
| 20260503204400 | 94 | 180 | 0.9 | 13.0 | 0.00 | 0.00 | 0.00 | 16 | 1006.7 |
| 20260503203337 | 94 | 171 | 5.2 | 13.9 | 0.00 | 0.00 | 0.00 | 16 | 1006.9 |
| 20260503202333 | 95 | 196 | 6.1 | 12.2 | 0.00 | 0.00 | 0.00 | 16 | 1006.9 |
| 20260503201335 | 94 | 162 | 2.6 | 9.6 | 0.00 | 0.00 | 0.00 | 17 | 1007.0 |
| 20260503200355 | 94 | 186 | 0.0 | 6.1 | 0.00 | 0.00 | 0.00 | 17 | 1007.3 |
| 20260503195333 | 93 | 109 | 3.5 | 14.8 | 0.00 | 0.00 | 0.00 | 17 | 1007.5 |
| 20260503194333 | 93 | 165 | 7.0 | 11.3 | 0.00 | 0.00 | 0.00 | 17 | 1007.6 |
| 20260503193332 | 93 | 176 | 5.2 | 12.2 | 0.00 | 0.00 | 0.00 | 19 | 1007.7 |
| 20260503192335 | 93 | 114 | 2.6 | 13.9 | 0.00 | 0.00 | 0.00 | 21 | 1007.9 |
| 20260503191332 | 93 | 181 | 1.7 | 8.7 | 0.00 | 0.00 | 0.00 | 21 | 1008.1 |
| 20260503190351 | 92 | 124 | 5.2 | 8.7 | 0.00 | 0.00 | 0.00 | 20 | 1008.3 |
| 20260503185328 | 91 | 180 | 3.5 | 10.4 | 0.00 | 0.00 | 0.00 | 21 | 1008.4 |
| 20260503184349 | 91 | 171 | 5.2 | 12.2 | 0.00 | 0.00 | 0.00 | 21 | 1008.7 |
| 20260503183331 | 90 | 178 | 4.3 | 8.7 | 0.00 | 0.00 | 0.00 | 21 | 1008.8 |
| 20260503182331 | 90 | 155 | 3.5 | 9.6 | 0.00 | 0.00 | 0.00 | 23 | 1008.9 |
| 20260503181329 | 89 | 164 | 2.6 | 8.7 | 0.00 | 0.00 | 0.00 | 23 | 1009.1 |
| 20260503180329 | 88 | 161 | 3.5 | 7.8 | 0.00 | 0.00 | 0.00 | 24 | 1009.3 |
| 20260503175328 | 88 | 165 | 0.0 | 7.8 | 0.00 | 0.00 | 0.00 | 24 | 1009.5 |
| 20260503174332 | 88 | 179 | 6.1 | 12.2 | 0.00 | 0.00 | 0.00 | 24 | 1009.6 |
| 20260503173332 | 87 | 146 | 1.7 | 7.8 | 0.00 | 0.00 | 0.00 | 24 | 1009.6 |
| 20260503172333 | 87 | 186 | 1.7 | 10.4 | 0.00 | 0.00 | 0.00 | 25 | 1009.6 |
| 20260503171330 | 87 | 54 | 0.0 | 8.7 | 0.00 | 0.00 | 0.00 | 25 | 1009.7 |
| 20260503170332 | 86 | 112 | 4.3 | 9.6 | 0.00 | 0.00 | 0.00 | 25 | 1009.7 |
| 20260503150339 | 80 | 64 | 0.9 | 9.6 | 0.00 | 0.00 | 0.00 | 31 | 1009.7 |
| 20260503131326 | 76 | 65 | 0.9 | 4.3 | 0.00 | 0.00 | 0.00 | 32 | 1008.9 |
| 20260503130329 | 77 | 124 | 0.9 | 5.2 | 0.00 | 0.00 | 0.00 | 32 | 1008.8 |
| 20260503110340 | 78 | 75 | 0.9 | 4.3 | 0.00 | 0.00 | 0.00 | 29 | 1008.5 |
| 20260503090338 | 78 | 69 | 0.9 | 3.5 | 0.00 | 0.00 | 0.00 | 24 | 1008.5 |
| 20260503081335 | 78 | 67 | 0.0 | 0.0 | 0.00 | 0.00 | 0.00 | 24 | 1008.8 |
| 20260503080333 | 78 | 67 | 0.0 | 0.0 | 0.00 | 0.00 | 0.00 | 24 | 1008.8 |
| 20260503072334 | 79 | 67 | 0.0 | 0.0 | 0.00 | 0.00 | 0.00 | 23 | 1009.0 |
| 20260503071333 | 79 | 95 | 0.0 | 0.9 | 0.00 | 0.00 | 0.00 | 23 | 1009.0 |
| 20260503070350 | 79 | 116 | 0.0 | 0.0 | 0.00 | 0.00 | 0.00 | 23 | 1009.1 |
| 20260503060330 | 77 | 197 | 0.0 | 0.0 | 0.00 | 0.00 | 0.00 | 30 | 1008.4 |
| 20260503054348 | 78 | 204 | 0.0 | 0.0 | 0.00 | 0.00 | 0.00 | 31 | 1008.4 |
| 20260503053345 | 78 | 204 | 0.0 | 0.0 | 0.00 | 0.00 | 0.00 | 29 | 1008.3 |
| 20260503052403 | 78 | 205 | 0.0 | 0.0 | 0.00 | 0.00 | 0.00 | 28 | 1008.2 |
| 20260503051344 | 79 | 205 | 0.0 | 0.0 | 0.00 | 0.00 | 0.00 | 28 | 1008.4 |
| 20260503050342 | 79 | 204 | 0.0 | 0.0 | 0.00 | 0.00 | 0.00 | 28 | 1008.4 |
| 20260503045341 | 79 | 102 | 0.0 | 0.0 | 0.00 | 0.00 | 0.00 | 28 | 1008.3 |
| 20260503044339 | 80 | 94 | 0.0 | 0.0 | 0.00 | 0.00 | 0.00 | 26 | 1008.2 |
| 20260503043335 | 80 | 94 | 0.0 | 0.0 | 0.00 | 0.00 | 0.00 | 26 | 1008.1 |
| 20260503042358 | 81 | 94 | 0.0 | 0.0 | 0.00 | 0.00 | 0.00 | 25 | 1008.0 |
| 20260503041335 | 82 | 95 | 0.0 | 0.0 | 0.00 | 0.00 | 0.00 | 24 | 1007.9 |
| 20260503040354 | 83 | 95 | 0.0 | 0.0 | 0.00 | 0.00 | 0.00 | 22 | 1007.7 |
| 20260503035332 | 83 | 95 | 0.0 | 0.0 | 0.00 | 0.00 | 0.00 | 22 | 1007.7 |
| 20260503034330 | 84 | 95 | 0.0 | 0.0 | 0.00 | 0.00 | 0.00 | 20 | 1007.5 |
| 20260503033334 | 85 | 95 | 0.0 | 0.0 | 0.00 | 0.00 | 0.00 | 20 | 1007.5 |
| 20260503032331 | 85 | 95 | 0.0 | 0.0 | 0.00 | 0.00 | 0.00 | 18 | 1007.3 |
| 20260503031329 | 86 | 130 | 0.0 | 0.0 | 0.00 | 0.00 | 0.00 | 17 | 1007.1 |
| 20260503030328 | 86 | 130 | 0.0 | 0.0 | 0.00 | 0.00 | 0.00 | 17 | 1007.2 |
| 20260503025352 | 87 | 131 | 0.0 | 0.0 | 0.00 | 0.00 | 0.00 | 16 | 1007.3 |
| 20260503024329 | 88 | 131 | 0.0 | 0.0 | 0.00 | 0.00 | 0.00 | 16 | 1007.1 |
| 20260503023328 | 88 | 136 | 0.0 | 0.9 | 0.00 | 0.00 | 0.00 | 15 | 1007.1 |
| 20260503022326 | 89 | 144 | 0.0 | 0.0 | 0.00 | 0.00 | 0.00 | 15 | 1007.0 |
| 20260503021345 | 89 | 144 | 0.0 | 1.7 | 0.00 | 0.00 | 0.00 | 14 | 1007.0 |
| 20260503020327 | 89 | 162 | 0.0 | 3.5 | 0.00 | 0.00 | 0.00 | 14 | 1007.0 |
| 20260503015407 | 90 | 101 | 2.6 | 6.1 | 0.00 | 0.00 | 0.00 | 14 | 1007.0 |
| 20260503014403 | 90 | 105 | 0.0 | 2.6 | 0.00 | 0.00 | 0.00 | 13 | 1007.1 |
| 20260503013341 | 91 | 145 | 0.0 | 5.2 | 0.00 | 0.00 | 0.00 | 14 | 1007.2 |
| 20260503012340 | 91 | 105 | 0.9 | 6.1 | 0.00 | 0.00 | 0.00 | 14 | 1007.3 |
| 20260503011404 | 91 | 175 | 2.6 | 7.0 | 0.00 | 0.00 | 0.00 | 14 | 1007.3 |
| 20260503010341 | 92 | 163 | 0.9 | 6.1 | 0.00 | 0.00 | 0.00 | 13 | 1007.4 |
| 20260503005342 | 91 | 64 | 0.9 | 6.1 | 0.00 | 0.00 | 0.00 | 14 | 1007.4 |
| 20260503004340 | 91 | 9 | 0.0 | 7.8 | 0.00 | 0.00 | 0.00 | 13 | 1007.4 |
| 20260503003339 | 92 | 48 | 0.0 | 4.3 | 0.00 | 0.00 | 0.00 | 13 | 1007.5 |
| 20260503002344 | 92 | 355 | 2.6 | 7.0 | 0.00 | 0.00 | 0.00 | 13 | 1007.5 |
| 20260503001342 | 93 | 93 | 0.0 | 5.2 | 0.00 | 0.00 | 0.00 | 13 | 1007.6 |
| 20260503000341 | 94 | 65 | 0.9 | 8.7 | 0.00 | 0.00 | 0.00 | 13 | 1007.6 |
| 20260502235402 | 94 | 161 | 0.9 | 4.3 | 0.00 | 0.00 | 0.00 | 13 | 1007.5 |
| 20260502234346 | 94 | 119 | 0.9 | 6.1 | 0.00 | 0.00 | 0.00 | 13 | 1007.6 |